GEFSSGP_con_probscp_186.txt.gz
Probability
0 0 0 0 0 0 0 0 0 0 0 0 0 0 0 0 0 0 1 1 2 5 11 16 19 21 22 23 23 22 20 19 22 24 25 24 23 20 18 16 14 13 10 6 5 4 3 2 1
0 0 0 0 0 0 0 0 0 0 0 0 0 0 0 0 0 1 1 3 6 9 14 18 21 23 23 23 24 23 21 21 23 24 24 23 23 21 18 16 15 14 13 9 7 6 5 4 3
0 0 0 0 0 0 0 0 0 1 2 2 1 1 1 1 1 1 1 4 9 12 14 19 23 24 25 25 25 26 26 25 25 24 24 24 23 20 19 18 17 16 16 15 12 10 9 8 7
0 0 0 0 0 0 0 0 1 2 3 3 3 3 2 1 1 2 3 7 10 12 13 18 24 26 28 29 29 29 31 31 29 27 25 24 22 20 19 19 17 16 16 17 17 15 14 11 9
0 0 0 0 0 1 1 1 1 3 3 4 5 5 4 4 5 5 7 11 13 14 15 19 25 30 32 33 33 33 36 37 35 31 27 25 22 20 20 19 17 14 13 13 14 15 15 13 10
0 0 0 0 1 2 2 2 2 3 4 4 6 7 7 9 10 9 10 12 16 18 20 22 27 31 35 38 38 40 41 42 41 36 32 30 26 23 21 20 18 15 12 9 8 10 12 12 11
0 0 0 1 2 3 2 1 1 4 6 7 8 9 10 13 15 15 14 15 18 21 23 25 27 29 34 40 43 45 44 44 43 41 39 34 30 26 23 21 21 19 14 10 7 7 10 12 11
0 0 0 1 2 3 1 1 2 5 9 10 11 11 13 17 23 25 23 21 21 22 23 24 25 27 30 36 42 42 41 42 42 42 40 35 29 26 24 23 22 21 18 14 12 11 13 14 12
0 0 0 1 2 3 2 2 3 6 9 12 14 14 16 23 33 38 35 30 27 25 24 23 23 24 27 30 33 34 35 35 35 35 34 30 26 23 22 22 21 22 21 20 19 17 16 15 15
0 0 0 1 2 2 3 3 4 6 9 12 15 17 21 29 37 41 41 36 32 29 27 24 23 24 27 29 28 28 30 30 27 25 25 24 22 20 20 19 20 21 22 23 22 18 15 14 16
0 0 0 0 1 1 2 3 4 6 8 10 14 21 27 31 32 33 35 35 34 32 29 27 28 29 29 29 28 27 29 28 25 21 20 20 18 17 18 18 18 19 20 19 19 16 13 13 13
0 0 0 0 0 1 2 2 3 6 7 7 12 21 30 30 26 25 27 29 31 31 30 30 32 32 30 28 27 27 28 27 24 21 20 19 18 16 16 16 15 15 15 14 14 14 12 11 11
0 0 0 0 0 1 1 2 3 5 7 8 12 20 28 28 24 23 24 26 27 28 29 31 33 31 29 27 26 26 25 24 22 20 19 19 18 17 16 14 12 10 10 10 10 11 10 9 8
0 0 0 1 1 2 2 4 5 6 9 12 14 18 22 24 23 24 27 26 25 24 26 29 30 29 27 27 25 23 21 20 20 19 19 19 19 18 15 12 10 9 8 7 7 8 8 7 6
0 0 0 1 2 3 3 4 5 6 9 12 14 14 16 18 21 25 28 28 25 23 23 24 25 25 24 25 23 21 20 20 19 19 19 19 18 16 13 9 7 7 7 6 5 5 5 5 4
0 0 0 1 2 2 2 3 3 4 7 10 11 12 13 13 15 19 23 26 26 24 21 21 21 20 20 22 22 22 20 19 19 18 18 17 17 14 10 7 6 6 7 7 6 5 4 3 3
0 0 0 0 1 1 1 1 2 3 6 9 10 11 12 11 11 12 16 21 25 25 23 21 20 18 17 18 20 21 18 16 16 15 14 14 14 11 6 5 5 6 7 8 7 6 5 4 4
0 0 0 0 0 0 0 0 1 3 6 9 10 10 11 10 9 9 12 17 22 24 22 20 19 17 14 15 18 18 16 14 13 11 10 9 8 6 4 3 4 6 7 7 7 7 6 5 4
0 0 0 0 0 0 0 0 0 2 7 10 9 8 7 7 6 7 11 15 19 20 19 18 17 16 15 16 17 16 15 13 11 8 5 4 3 4 4 4 5 6 6 6 6 6 5 3 2
0 0 0 0 0 0 1 1 1 2 6 8 7 5 4 4 3 4 6 10 14 15 16 15 16 17 18 17 16 14 14 11 8 4 2 2 2 3 4 5 5 6 5 4 4 4 3 1 0
0 0 0 0 0 0 1 2 2 2 4 5 5 4 3 2 1 1 2 5 8 11 13 14 15 16 17 16 15 14 13 9 5 2 2 3 3 3 4 5 5 4 3 3 2 2 1 0 0
0 0 0 0 0 0 1 1 2 1 1 2 3 3 3 1 0 0 1 2 4 8 11 12 13 13 14 14 14 15 13 9 5 3 2 3 3 3 3 4 4 2 1 1 1 1 0 0 0
0 0 0 0 0 0 0 0 1 1 1 1 2 3 3 1 0 0 1 1 2 4 9 11 11 11 12 13 14 15 14 10 6 4 2 1 1 2 3 4 3 2 1 0 0 0 0 0 0
0 0 0 0 0 0 0 0 0 0 0 0 1 3 3 2 0 1 2 2 1 2 6 9 11 11 11 10 11 12 12 9 6 3 2 1 2 3 3 3 3 3 2 1 1 0 0 0 0
0 0 0 0 0 0 0 0 0 0 0 0 0 1 2 1 0 1 2 3 2 2 4 7 8 9 9 8 7 8 9 7 5 4 3 3 4 4 3 3 3 3 3 2 1 0 0 0 0
0 0 0 0 0 0 0 0 0 0 0 0 0 0 0 0 0 0 1 3 3 2 3 4 5 6 6 5 5 5 5 6 6 5 4 4 4 4 3 2 2 3 3 3 1 0 0 0 0
0 0 0 0 0 0 0 0 0 0 0 0 0 0 0 0 0 0 1 2 2 1 1 3 4 4 4 4 5 4 4 5 7 6 4 3 3 3 3 2 2 2 3 2 1 0 0 0 0
0 0 0 0 0 0 0 0 0 0 0 0 0 0 0 0 0 0 0 1 1 0 1 2 3 3 3 4 4 4 3 4 5 4 2 2 2 2 3 3 3 2 2 2 1 0 0 0 0
0 0 0 0 0 0 0 0 0 0 0 0 0 0 0 0 0 0 0 0 0 0 0 1 1 3 3 3 4 3 3 3 3 2 1 0 0 1 2 4 4 3 1 1 0 0 0 0 0
0 0 0 0 0 0 0 0 0 0 0 0 0 0 0 0 0 0 0 0 0 0 0 0 1 2 3 3 3 3 3 2 1 1 0 0 0 1 2 4 4 4 1 0 0 0 0 0 0

GEFSSGP_con_probscp_192.txt.gz
Probability
0 0 0 0 0 0 0 0 0 0 0 0 0 0 0 1 0 0 0 0 2 10 18 21 22 19 14 11 11 13 16 19 20 23 23 22 22 20 16 14 14 13 11 8 5 4 4 5 6
0 0 0 0 0 0 0 0 0 0 0 0 0 0 1 2 1 1 0 0 3 10 17 22 23 21 16 13 12 14 17 19 21 22 22 23 23 22 19 17 16 14 12 10 8 5 5 5 5
0 0 0 0 0 0 0 0 0 0 0 0 0 1 2 3 2 1 1 1 3 8 17 25 29 26 21 17 16 16 18 21 23 23 23 24 24 24 22 21 19 16 14 12 10 6 5 5 5
0 0 0 0 0 1 1 1 0 0 0 0 1 2 3 3 3 1 1 2 3 8 18 29 33 30 26 24 22 21 21 23 25 26 26 27 26 23 21 20 19 18 17 14 10 8 7 6 6
0 0 0 0 1 2 3 1 0 0 0 0 1 3 5 5 4 3 3 5 6 10 20 29 33 31 29 29 29 28 26 27 27 27 28 29 27 22 18 17 17 18 19 16 13 11 10 10 9
0 0 0 0 1 3 3 1 1 1 1 1 2 5 8 9 9 9 9 11 12 16 22 27 30 30 30 32 35 35 32 31 29 27 27 28 25 20 17 16 18 19 19 18 15 12 11 12 12
0 0 0 0 1 3 3 1 1 2 3 4 4 7 10 12 15 17 18 19 19 21 24 25 26 27 30 33 37 38 37 35 32 29 26 24 22 19 16 17 18 19 19 17 16 13 11 12 14
0 0 0 0 1 2 2 1 1 3 5 6 6 8 11 13 17 22 25 27 27 27 27 26 24 25 27 31 35 37 39 37 32 28 25 21 18 16 15 16 17 18 18 18 18 16 13 13 15
0 0 0 0 1 2 2 0 1 3 5 7 7 9 11 13 18 24 29 33 34 32 30 27 25 26 26 27 30 34 34 32 29 26 25 21 18 16 15 17 18 18 17 17 18 18 16 14 14
0 0 0 0 1 2 2 1 0 2 4 6 9 11 12 14 18 22 27 31 32 31 31 29 28 29 28 26 29 31 29 27 25 24 24 25 24 21 18 20 21 18 16 16 17 18 17 17 16
0 0 0 0 1 3 3 1 1 2 3 6 10 13 14 15 16 18 22 25 27 27 30 31 31 31 30 30 32 32 30 27 24 22 24 27 30 27 24 24 23 19 17 17 18 19 19 19 19
0 0 0 0 1 2 2 2 2 3 4 7 11 16 17 17 18 19 21 23 25 27 31 33 34 36 37 37 36 34 33 29 24 22 23 27 31 30 27 26 24 22 20 19 19 19 20 20 19
0 0 0 0 1 1 1 2 2 2 3 6 11 16 19 20 23 25 26 26 29 32 35 36 39 43 45 45 41 37 35 31 25 23 25 28 31 30 27 24 23 22 21 20 19 18 20 22 21
0 0 0 0 0 0 0 1 1 1 2 5 8 12 17 21 24 28 29 28 31 35 37 39 42 45 47 48 46 40 35 30 25 25 27 30 31 29 26 23 23 22 21 19 17 17 20 22 21
0 0 0 0 0 0 0 0 1 1 2 5 7 10 14 17 20 23 24 23 26 32 36 39 41 43 45 47 46 41 34 29 26 26 30 31 30 28 27 25 24 25 24 21 18 18 19 18 17
0 0 0 0 0 0 0 0 2 3 5 6 8 11 13 14 15 15 14 14 18 26 34 37 39 40 43 45 43 39 33 29 27 28 29 30 28 28 27 27 27 27 25 22 19 18 18 17 15
0 0 0 0 0 0 1 1 3 4 5 7 9 13 14 14 13 11 9 8 12 21 30 33 35 38 40 41 39 34 29 26 25 25 26 27 27 27 27 28 28 26 24 21 17 18 19 19 19
0 0 0 0 0 1 2 2 3 3 4 7 10 13 14 13 12 10 9 9 11 18 24 28 32 34 36 37 36 32 26 23 23 23 23 24 26 26 25 25 26 25 23 18 15 16 18 18 18
0 0 0 0 0 2 3 2 2 2 3 6 11 13 13 12 10 10 10 10 12 15 19 25 28 30 32 34 35 32 29 25 22 22 22 22 23 22 22 22 24 25 22 17 14 16 16 14 14
0 0 0 0 0 1 2 1 0 1 2 5 9 11 11 10 8 8 9 11 13 14 17 21 25 27 28 30 32 32 30 25 21 20 20 20 19 18 18 20 21 23 21 17 15 16 14 10 10
0 0 0 0 0 0 0 0 0 0 1 3 4 6 7 8 8 7 8 10 13 15 17 19 23 24 26 27 28 27 26 22 18 17 18 18 16 16 16 17 18 19 18 16 15 14 11 8 7
0 0 0 0 0 0 0 0 0 0 0 0 1 1 3 5 7 7 7 9 12 14 16 18 21 23 24 25 25 25 23 20 19 18 18 17 15 14 13 14 15 15 14 13 12 11 9 8 7
0 0 0 0 0 0 0 0 1 1 0 0 0 0 0 2 5 7 7 8 9 11 13 15 18 20 21 22 23 24 22 20 20 20 20 18 14 11 10 12 13 12 11 10 9 8 9 9 9
0 0 0 0 0 0 0 0 1 2 1 0 0 0 0 1 3 5 7 8 8 9 11 12 13 15 17 18 20 21 21 21 21 22 21 19 16 11 9 11 12 11 10 9 8 7 8 9 9
0 0 0 0 0 0 0 0 1 2 1 0 0 1 2 2 3 4 6 7 7 8 10 11 11 11 11 13 17 19 19 20 20 21 21 19 16 14 11 11 11 11 9 9 8 8 8 9 9
0 0 0 0 0 0 0 0 1 1 0 0 0 2 3 3 3 3 3 4 4 6 8 9 9 8 8 9 13 16 16 15 15 16 17 16 15 14 11 9 10 10 8 8 9 10 9 9 10
0 0 0 0 0 0 0 0 0 0 0 0 0 1 2 2 2 2 1 1 2 3 5 6 7 6 6 7 8 9 10 10 10 11 12 12 12 11 8 6 8 8 8 8 9 10 10 10 11
0 0 0 0 0 0 0 0 1 1 0 0 0 0 1 1 1 1 1 2 2 3 3 4 5 5 4 5 4 5 6 8 8 9 9 8 8 7 6 6 6 7 7 7 7 8 9 9 9
0 0 0 0 0 0 0 0 1 1 0 0 0 0 0 0 0 0 1 2 3 3 3 4 5 4 4 4 3 4 5 7 7 7 7 7 6 5 5 6 6 5 5 5 5 5 6 5 4
0 0 0 0 0 0 0 0 1 1 0 0 0 0 0 0 0 0 1 2 3 3 3 4 4 5 5 4 3 4 4 5 6 6 6 6 6 4 4 5 4 3 2 3 4 4 3 2 1

GEFSSGP_con_probscp_198.txt.gz
Probability
0 0 0 0 0 0 0 0 1 2 2 2 1 0 1 4 7 7 6 11 27 37 30 28 30 22 14 10 6 3 1 1 3 5 4 2 2 2 1 1 1 3 5 6 6 6 4 2 1
0 0 0 0 0 0 0 1 2 2 2 1 0 1 2 5 7 8 7 11 26 35 32 31 33 26 18 13 8 5 3 3 4 6 7 6 5 4 3 2 2 4 5 5 6 6 5 3 2
0 0 0 0 0 0 0 1 2 2 1 1 2 4 6 6 7 7 7 13 24 33 36 38 39 34 24 16 12 9 7 6 7 8 11 12 10 9 8 6 6 6 6 5 5 5 5 4 4
0 0 0 0 0 0 0 1 1 1 0 2 6 9 9 7 5 4 6 13 23 32 39 44 44 38 30 22 16 14 12 11 13 13 14 14 14 15 14 13 12 12 10 6 5 6 7 7 7
0 0 0 0 0 0 0 0 0 0 2 5 10 12 10 6 5 5 7 13 23 34 43 47 47 43 35 27 23 20 18 18 20 20 18 16 16 18 19 17 16 16 14 9 7 9 12 12 12
0 0 0 0 0 0 0 1 1 2 5 9 12 13 11 9 8 9 11 16 26 38 45 48 48 46 39 32 27 24 23 25 27 27 24 19 17 19 20 17 15 16 15 13 12 12 13 14 15
0 0 0 0 0 1 1 2 3 5 7 10 13 14 14 13 12 13 15 20 28 39 46 46 44 43 40 35 31 28 28 31 32 30 26 21 19 20 20 17 15 15 15 16 15 13 12 15 18
0 0 0 0 1 2 3 4 6 8 9 11 13 15 16 16 15 17 19 22 28 38 43 44 42 41 39 37 34 31 31 35 34 30 27 23 19 18 20 20 19 18 18 18 15 12 12 16 19
0 0 0 0 2 4 5 5 6 10 13 14 14 15 16 16 18 21 23 26 31 37 40 40 40 40 39 38 37 34 33 33 31 28 28 24 18 16 18 21 25 26 24 22 16 13 15 17 18
0 0 0 1 3 4 4 4 6 9 13 16 17 18 17 18 21 25 28 31 35 39 39 37 38 39 39 40 40 37 32 31 29 27 27 24 19 16 16 21 29 31 27 23 17 16 18 19 18
0 0 0 1 2 3 3 4 6 7 9 13 17 19 19 20 24 28 31 34 38 41 41 38 40 42 43 44 45 39 34 31 30 29 28 26 22 20 20 24 29 29 24 20 17 16 17 18 18
0 0 1 1 1 3 4 5 6 6 6 9 16 20 21 22 25 29 32 36 41 43 42 43 48 51 52 53 50 42 36 33 32 33 34 32 29 26 26 28 28 25 21 18 16 15 15 14 15
0 0 0 0 1 3 6 8 7 6 6 9 15 20 23 25 27 30 33 37 42 43 42 44 52 58 58 57 53 44 39 38 37 38 39 37 34 31 30 30 29 26 24 22 20 18 15 14 14
0 0 0 0 1 3 6 9 9 6 7 10 15 20 24 27 29 30 31 35 39 41 41 42 50 56 56 53 50 44 41 42 43 43 42 39 34 32 31 32 33 32 31 30 27 23 19 17 16
0 0 0 0 1 2 5 9 10 9 8 10 14 19 25 28 29 28 27 30 36 40 41 42 45 48 49 48 47 44 42 45 47 46 45 40 33 31 33 34 36 35 33 33 31 27 24 22 19
0 0 0 0 0 1 3 8 12 10 8 10 13 18 24 27 27 25 23 25 32 38 41 42 42 42 42 43 45 45 43 44 46 46 44 39 33 31 33 35 35 34 32 31 30 28 27 24 21
0 0 0 0 0 0 4 9 11 9 8 9 12 18 21 22 22 21 20 21 25 33 38 41 41 39 37 39 41 41 40 41 42 43 42 37 32 31 32 32 32 33 33 31 27 26 26 24 22
0 0 0 0 1 2 6 9 10 8 8 9 13 17 18 17 17 16 16 17 21 27 32 35 36 35 35 37 37 35 34 36 39 40 39 36 32 30 30 30 32 34 35 32 29 26 24 22 21
0 0 1 1 2 4 6 9 11 11 9 10 12 16 17 16 15 14 13 15 20 24 27 28 30 32 34 35 35 33 31 32 35 37 36 34 31 29 27 27 29 32 33 32 29 26 22 20 19
0 0 1 2 3 4 5 9 15 17 13 10 11 13 15 15 14 13 11 12 16 21 22 23 27 31 33 33 32 31 30 31 32 34 33 29 27 26 24 23 25 27 29 29 28 25 21 18 17
0 0 0 1 2 3 4 8 16 20 15 10 10 11 12 12 13 12 10 10 12 16 19 21 25 30 32 30 28 27 28 29 29 30 29 25 23 22 22 21 20 22 25 27 27 24 18 15 14
0 0 0 0 1 2 3 7 14 17 15 11 9 9 8 9 10 10 10 9 10 13 17 20 24 28 29 28 26 26 27 26 25 25 25 22 21 21 20 18 17 19 24 27 26 23 18 13 11
0 0 0 0 0 0 2 5 11 15 14 12 10 8 6 6 8 8 8 9 10 12 14 19 24 26 27 26 26 27 27 24 23 23 22 21 20 20 18 15 15 17 22 24 24 22 19 13 10
0 0 0 0 0 0 1 4 9 13 14 13 12 9 7 7 7 7 7 9 9 8 10 15 20 23 23 23 25 26 26 25 23 22 21 20 20 19 17 16 17 18 20 21 21 20 18 14 10
0 0 0 0 0 1 2 3 8 12 12 12 12 10 9 8 7 6 6 5 4 3 6 9 14 18 19 19 20 21 24 25 23 20 20 20 20 20 17 16 18 19 19 19 19 19 17 14 10
0 0 0 0 0 1 2 4 7 8 7 8 9 8 7 6 5 4 3 2 1 1 3 6 10 13 15 16 16 17 20 22 20 19 19 19 18 17 15 12 14 17 15 15 16 16 15 13 9
0 0 0 0 0 1 2 4 5 4 3 3 4 4 4 4 4 3 2 1 0 0 2 5 8 10 12 13 13 13 15 16 15 15 16 15 14 13 11 9 10 11 9 9 11 12 13 9 6
0 0 0 0 0 0 1 2 3 2 1 0 1 1 1 2 2 2 1 1 0 0 1 3 5 8 10 11 11 10 11 11 11 11 10 10 11 12 10 9 8 6 5 6 9 10 9 6 3
0 0 0 0 0 0 0 1 2 2 1 0 0 0 0 1 1 1 0 0 0 0 1 2 4 6 9 10 9 8 8 8 8 8 8 8 9 10 10 8 5 3 3 4 5 6 6 5 4
0 0 0 0 0 0 0 1 2 2 1 0 0 0 0 0 0 0 0 0 0 0 0 1 3 5 9 10 9 7 7 6 6 6 6 7 8 8 7 6 3 1 1 1 2 3 4 5 6

GEFSSGP_con_probscp_204.txt.gz
Probability
0 0 0 0 0 0 0 0 1 3 4 5 6 6 7 7 5 4 2 3 7 9 9 17 25 25 23 22 20 19 19 21 21 19 17 14 12 12 12 11 7 4 4 3 2 1 1 2 4
0 0 0 0 0 0 0 1 2 3 3 5 7 8 9 8 6 4 3 6 9 10 10 16 25 28 26 25 23 20 21 22 22 19 17 15 13 14 14 12 8 5 4 4 2 1 2 4 4
0 0 0 0 0 0 0 1 1 2 4 6 9 10 11 9 7 5 6 11 14 13 11 17 27 32 31 29 27 25 24 24 23 20 17 15 14 15 16 13 10 7 6 4 3 3 3 4 4
0 0 0 0 0 0 0 0 0 2 6 10 12 13 12 10 7 8 12 17 18 15 13 20 30 35 34 31 30 29 27 25 24 21 18 16 16 17 18 15 11 9 7 5 4 4 4 4 4
0 0 0 0 0 0 0 0 1 4 8 12 15 15 13 11 10 14 19 21 20 18 17 24 33 38 37 34 33 32 30 27 24 22 19 17 18 20 20 17 14 11 8 7 6 6 6 5 5
0 0 0 0 0 0 0 1 4 8 12 14 16 16 15 14 16 21 23 23 22 21 20 26 34 38 38 37 35 34 33 29 25 23 20 18 18 20 21 19 16 12 9 7 7 8 8 8 8
0 0 0 0 0 0 0 1 5 11 15 17 17 17 16 17 21 26 28 26 23 21 21 26 30 33 33 33 32 32 31 29 25 22 21 19 17 18 19 18 16 13 10 7 8 9 9 9 10
0 0 0 0 0 0 1 1 3 9 15 18 19 17 16 19 26 32 32 29 24 21 23 26 27 28 29 28 28 27 27 26 23 20 19 18 15 15 16 15 14 13 11 10 11 11 10 10 10
0 0 0 0 1 1 2 2 2 6 12 16 18 18 18 22 29 34 33 27 23 21 22 23 24 25 27 28 28 27 27 25 21 17 16 15 13 12 13 13 12 12 10 12 15 16 14 12 11
0 0 0 0 1 2 3 3 3 5 10 13 16 19 22 25 28 30 27 23 20 17 15 17 19 21 23 26 27 28 29 25 20 15 13 13 12 11 12 11 10 10 10 11 14 16 15 13 12
0 0 0 1 1 1 2 3 3 6 9 12 17 21 25 26 27 26 24 22 19 14 11 12 15 17 19 22 25 27 28 24 18 15 14 14 14 13 12 10 9 9 9 9 10 11 11 11 11
0 0 1 1 1 0 1 3 4 6 10 14 18 23 27 27 27 26 24 24 20 15 11 11 13 15 17 18 22 24 24 21 18 16 16 16 15 13 11 10 9 8 8 7 7 7 8 8 9
0 0 1 1 1 2 2 4 5 8 12 16 19 23 25 25 25 24 23 24 21 16 13 12 12 14 16 17 18 18 17 18 18 17 17 16 14 11 9 8 7 7 7 8 8 7 7 8 7
0 0 0 1 3 4 4 4 7 11 16 17 18 20 21 20 19 19 19 20 19 16 14 14 13 13 14 16 16 14 14 15 15 14 14 14 13 10 7 6 6 7 9 9 8 7 7 6 5
0 0 0 1 2 4 4 4 7 13 18 18 18 18 17 16 15 16 16 16 16 15 14 14 13 13 14 15 14 14 13 13 11 10 10 11 11 9 7 6 6 8 9 9 8 6 4 3 3
0 0 0 0 1 2 3 4 7 13 19 20 19 17 15 14 15 16 17 17 16 15 14 14 14 14 15 15 14 14 13 11 10 9 9 10 12 12 9 7 7 9 10 9 7 4 2 2 2
0 0 0 0 0 1 3 4 6 13 17 18 17 15 13 14 15 16 17 18 16 14 13 13 12 12 15 16 15 14 12 11 11 12 12 12 14 15 12 9 8 9 11 11 9 5 2 2 2
0 0 0 0 0 1 2 2 6 11 14 14 14 13 13 13 12 11 13 13 13 12 12 11 9 10 14 17 17 14 12 11 13 15 15 14 15 15 13 11 10 10 11 12 11 6 3 1 1
0 0 0 0 0 0 1 2 5 8 9 8 9 9 9 9 8 7 8 9 10 10 9 8 8 9 12 16 17 15 12 12 14 15 16 15 15 14 13 11 10 10 12 13 10 6 3 2 1
0 0 0 0 1 0 1 2 4 5 5 5 5 6 6 5 5 6 6 7 9 8 7 6 6 8 10 12 14 13 12 13 13 13 12 12 12 13 13 10 8 9 12 12 8 5 3 2 2
0 0 0 0 0 0 1 2 4 3 3 4 4 5 5 4 5 5 4 5 6 5 4 3 3 5 8 10 12 12 11 11 11 10 9 9 9 11 12 10 8 8 9 8 6 5 3 3 3
0 0 0 0 0 0 0 1 2 2 3 4 4 5 5 4 4 5 3 3 4 3 2 1 2 5 7 9 11 11 10 9 9 8 7 7 7 9 10 10 8 7 6 6 5 4 4 3 3
0 0 0 0 0 0 0 0 1 2 3 3 4 5 4 3 3 4 3 3 3 2 1 0 1 3 5 7 9 10 10 9 8 7 7 6 7 7 9 9 8 7 6 6 6 4 4 4 2
0 0 0 0 0 0 0 0 1 2 2 2 4 5 4 3 3 3 3 2 2 1 0 0 0 1 2 5 7 8 9 8 7 6 6 6 6 7 8 8 7 7 6 6 6 4 4 4 3
0 0 0 0 0 0 0 0 0 1 0 1 3 4 3 3 3 3 1 1 1 0 0 0 0 0 2 5 6 6 6 5 4 3 3 4 6 6 6 6 6 6 6 6 5 4 3 4 4
0 0 0 0 0 0 0 0 0 0 1 1 2 2 3 3 3 2 1 0 0 0 0 0 0 1 3 4 4 3 2 1 1 0 1 3 5 5 5 4 4 4 4 4 4 3 3 3 3
0 0 0 0 0 0 0 0 0 1 2 2 1 1 2 2 3 2 1 0 0 0 0 0 0 0 2 3 3 1 0 0 0 0 0 2 3 4 4 3 3 3 3 3 3 3 3 3 3
0 0 0 0 0 0 0 0 0 1 1 1 1 0 1 1 1 1 1 0 0 0 0 0 0 0 1 2 2 1 0 0 0 0 1 2 3 3 3 3 3 2 1 2 3 3 3 3 2
0 0 0 0 0 0 0 0 0 0 0 0 0 0 0 0 0 0 0 0 0 0 0 0 0 0 0 1 1 0 0 0 0 0 1 2 3 3 3 3 3 1 0 0 1 2 2 1 1
0 0 0 0 0 0 0 0 0 0 0 0 0 0 0 0 0 0 0 0 0 0 0 0 0 0 0 0 0 0 0 0 0 0 1 2 3 3 3 3 2 1 0 0 0 1 1 0 0

GEFSSGP_con_probscp_210.txt.gz
Probability
0 0 0 0 0 0 0 0 0 0 0 2 5 6 5 4 3 2 2 4 8 12 17 23 25 25 26 27 30 32 30 27 29 30 28 25 23 19 14 10 8 7 7 6 4 2 4 6 6
0 0 0 0 0 0 0 0 0 0 0 2 5 6 5 3 2 2 2 5 10 14 17 20 23 24 25 27 29 31 29 27 27 28 27 25 21 18 15 13 11 9 9 8 5 3 4 5 6
0 0 0 0 0 0 0 0 0 0 1 3 5 5 4 2 1 2 4 10 15 17 18 21 23 24 25 27 29 29 27 26 27 28 27 24 20 17 15 14 12 10 9 9 8 6 4 4 4
0 0 0 0 0 0 0 0 0 0 2 4 5 4 4 2 1 4 9 17 20 19 19 21 24 26 27 27 27 26 25 26 28 30 28 25 21 17 14 13 11 10 9 10 11 9 5 3 3
0 0 0 0 0 0 0 1 1 1 3 6 6 6 5 3 3 6 13 19 21 19 17 18 22 27 28 26 24 23 23 26 29 31 30 27 23 19 16 15 13 12 11 10 11 10 6 5 6
0 0 0 0 0 0 0 1 2 2 3 5 7 8 6 4 5 9 14 18 19 19 17 15 18 23 27 26 23 21 22 24 26 27 25 24 21 19 17 16 14 12 11 10 9 9 9 9 10
0 0 0 0 0 0 0 1 2 2 3 4 7 9 7 6 8 12 15 18 20 20 18 15 15 18 23 25 24 22 22 22 22 20 18 16 15 14 13 11 9 9 9 8 7 8 11 12 12
0 0 0 0 0 0 0 1 3 3 3 4 6 8 9 11 15 17 18 19 20 20 17 14 13 15 18 21 22 23 22 20 19 16 14 14 13 10 8 8 7 7 7 7 7 9 11 12 12
0 0 0 0 0 1 1 1 3 4 4 6 7 10 14 18 21 22 20 19 19 18 15 13 12 13 15 16 19 21 20 19 18 17 16 15 13 10 8 8 8 7 8 7 7 8 9 10 10
0 0 0 0 1 2 2 2 3 3 4 6 8 13 19 22 22 21 20 19 17 16 14 13 12 12 14 15 16 18 18 17 17 18 18 16 14 11 10 10 9 8 8 7 7 8 9 9 9
0 0 0 0 1 2 3 3 4 4 4 5 9 15 21 22 19 17 17 18 16 13 12 12 11 11 12 13 13 14 15 16 17 19 19 17 14 13 12 11 9 7 7 7 8 10 10 10 10
0 0 0 0 0 2 3 4 5 5 5 5 10 14 18 19 16 13 12 13 13 12 11 11 10 10 10 10 10 10 13 17 18 19 19 17 14 13 13 11 9 8 7 7 8 9 10 10 9
0 0 0 0 1 2 3 4 6 6 6 8 11 14 15 14 12 9 7 8 9 11 11 10 9 9 8 8 8 8 12 15 16 16 15 13 11 10 11 11 10 9 7 6 6 6 7 7 7
0 0 0 0 1 2 3 4 6 7 8 10 13 14 13 11 8 6 6 6 7 9 9 8 8 8 7 8 8 8 9 12 13 12 11 9 6 7 9 9 9 8 7 6 5 5 4 5 5
0 0 0 0 0 1 2 2 5 7 8 11 13 14 13 10 6 5 6 6 7 8 8 7 7 7 7 7 8 7 8 10 11 11 10 7 5 5 7 8 8 7 6 5 5 5 4 4 5
0 0 0 0 0 0 0 1 4 7 8 9 12 14 14 11 6 4 5 6 7 8 8 7 6 6 6 6 7 7 7 8 8 9 9 7 6 6 7 8 8 7 7 6 6 6 5 6 6
0 0 0 0 0 0 0 1 3 7 8 8 10 13 14 11 5 3 5 7 9 10 9 7 6 6 6 5 5 5 6 6 5 5 6 6 6 6 6 7 8 9 9 7 7 7 7 7 7
0 0 0 0 0 0 0 1 3 6 8 8 8 9 10 8 4 3 5 7 9 9 7 6 6 5 4 4 3 3 3 4 4 4 4 5 6 6 6 7 9 10 10 9 8 8 7 7 7
0 0 0 0 0 0 0 1 2 4 6 5 5 5 6 5 3 4 5 8 8 6 4 3 4 4 3 3 3 3 3 3 4 4 4 5 6 6 6 8 9 10 10 10 9 9 8 7 6
0 0 0 0 0 0 0 1 1 2 2 2 2 4 4 4 4 4 5 7 8 5 3 2 3 3 3 3 3 3 3 3 4 5 4 5 6 7 7 7 8 9 10 10 9 9 8 7 6
0 0 0 0 0 0 0 0 0 0 0 0 1 4 5 5 4 4 4 6 6 5 3 2 2 2 2 2 2 3 3 3 4 4 3 4 6 7 7 6 7 8 9 9 8 7 7 7 6
0 0 0 0 0 0 0 0 0 0 0 0 2 3 5 5 4 3 3 4 5 4 3 1 0 1 1 0 1 2 2 2 3 3 2 3 4 6 6 5 5 7 8 8 7 6 7 7 6
0 0 0 0 0 0 0 0 0 0 0 0 1 3 4 4 3 3 3 3 4 3 2 1 0 0 0 0 0 1 1 1 2 3 1 1 2 3 4 3 3 4 5 5 5 5 6 6 6
0 0 0 0 0 0 0 0 0 0 0 0 1 2 3 3 3 3 3 3 3 3 1 0 0 0 0 0 0 0 0 0 1 1 0 0 1 2 3 3 2 3 4 3 2 3 4 4 4
0 0 0 0 0 0 0 0 0 0 0 0 1 2 3 3 3 3 3 3 3 2 1 0 0 0 0 0 0 0 0 0 0 0 0 0 0 1 2 3 3 4 3 2 1 1 2 3 3
0 0 0 0 0 0 0 0 0 0 0 0 1 2 3 3 3 3 3 3 2 1 0 0 0 0 0 0 0 0 0 0 0 0 0 0 0 0 2 3 3 4 3 1 1 0 1 2 2
0 0 0 0 0 0 0 0 0 0 0 1 1 2 3 3 3 3 2 1 1 0 0 0 0 0 0 0 0 0 0 0 0 0 0 0 0 1 2 3 3 3 3 2 2 1 0 1 1
0 0 0 0 0 0 0 0 0 0 0 1 2 2 2 2 2 1 1 0 0 0 0 0 0 0 0 0 0 0 0 0 0 1 1 1 0 1 2 3 3 3 3 3 3 2 1 0 0
0 0 0 0 0 0 0 0 0 0 0 1 1 1 0 1 1 0 0 0 0 0 0 0 0 0 0 0 0 0 0 1 1 2 2 2 1 1 2 3 3 3 3 3 3 2 1 0 0
0 0 0 0 0 0 0 0 0 0 0 0 0 0 0 0 0 0 0 0 0 0 0 0 0 0 0 0 0 0 1 2 2 2 3 2 1 2 2 3 3 3 3 3 3 1 0 0 0

GEFSSGP_con_probscp_216.txt.gz
Probability
0 0 0 0 0 0 0 0 0 0 0 0 0 0 1 1 1 1 1 0 2 6 11 16 21 22 19 13 12 16 18 19 19 18 16 16 16 16 16 16 14 12 11 8 6 4 2 1 0
0 0 0 0 0 0 0 0 0 0 0 0 0 1 3 3 2 1 0 1 3 7 12 17 22 24 21 17 14 16 18 18 19 19 18 18 17 16 15 15 14 13 11 10 8 5 2 1 1
0 0 0 0 0 0 0 0 1 1 0 0 0 3 5 4 1 0 1 1 3 8 14 21 26 28 28 23 19 18 19 18 18 19 18 17 18 17 14 12 12 11 10 9 8 5 3 2 2
0 0 0 0 0 0 0 1 2 2 1 1 1 3 4 3 1 1 3 3 5 8 14 23 29 32 32 27 22 22 22 20 18 17 17 16 16 16 13 10 10 10 9 9 7 5 4 4 5
0 0 0 0 0 0 0 1 2 3 3 2 1 3 4 2 1 3 5 5 6 8 12 20 26 28 27 25 22 23 23 20 19 18 16 16 15 13 10 8 8 10 11 10 9 7 6 6 7
0 0 0 0 0 0 1 2 2 3 3 3 2 3 4 3 3 6 7 8 8 8 11 15 20 22 23 23 22 21 20 18 18 18 17 16 14 12 9 7 7 9 10 10 9 7 6 6 6
0 0 0 0 0 1 2 3 3 4 4 3 4 5 5 5 6 9 11 11 10 11 12 13 13 17 20 21 21 20 18 17 19 19 18 17 16 14 11 8 7 7 8 8 8 8 7 6 5
0 0 0 0 0 1 3 4 4 5 4 4 5 7 7 8 10 12 15 14 14 15 15 12 11 13 16 18 19 19 19 20 21 21 19 18 16 15 13 11 9 9 8 7 7 8 7 7 7
0 0 0 0 0 1 2 3 4 4 3 3 5 7 8 10 12 15 16 15 15 18 17 13 10 10 13 15 17 17 17 19 19 18 17 16 16 14 12 11 11 12 10 8 7 6 6 8 10
0 0 0 0 0 0 1 2 2 1 1 2 4 6 7 9 12 14 13 12 14 17 17 14 11 10 12 14 16 17 18 17 16 13 13 15 16 14 10 10 12 12 11 10 8 7 7 9 11
0 0 0 0 0 0 0 1 1 0 0 1 3 5 6 7 10 11 10 10 12 15 16 14 13 13 14 16 18 19 19 18 15 12 13 16 18 17 14 12 13 12 11 10 10 10 9 11 12
0 0 0 0 0 0 0 0 1 1 1 2 4 6 7 7 9 11 11 11 13 15 17 16 16 18 20 22 22 20 19 17 15 15 16 19 21 19 17 16 15 13 12 12 12 11 11 12 13
0 0 0 0 0 0 0 1 2 2 3 4 6 8 9 8 10 13 13 12 13 15 17 18 18 21 24 27 25 20 18 17 17 17 18 20 22 21 19 20 17 13 13 14 13 10 10 11 11
0 0 0 0 0 0 0 1 2 3 4 5 8 10 10 9 10 13 14 14 14 16 18 19 20 22 24 25 24 20 18 19 21 20 20 22 24 23 21 21 19 14 14 15 14 11 10 8 7
0 0 0 0 0 0 0 1 2 3 5 6 8 10 11 10 11 14 15 15 17 18 19 21 22 23 23 23 20 19 19 21 23 23 22 23 25 24 21 20 18 15 13 15 16 14 11 9 7
0 0 0 0 0 0 1 2 2 3 5 7 9 11 12 12 13 14 14 15 17 19 21 22 22 22 22 21 19 17 18 21 23 23 22 22 22 20 19 18 16 14 13 15 17 16 15 12 11
0 0 0 0 0 0 1 2 3 2 4 7 10 12 12 12 13 14 13 13 16 19 21 21 21 21 19 19 18 16 15 16 18 19 19 19 18 17 16 15 15 14 13 15 17 18 18 17 16
0 0 0 0 0 1 1 2 3 3 3 6 10 12 12 11 12 13 13 13 16 18 20 20 19 18 15 14 15 14 11 10 12 14 15 14 13 13 13 13 14 13 13 15 17 18 18 18 18
0 0 0 0 0 1 1 2 2 3 4 6 10 12 13 12 12 14 15 15 17 19 19 17 15 13 11 10 11 11 9 7 8 10 12 13 11 10 10 12 13 12 12 15 17 17 17 18 19
0 0 0 0 0 0 1 1 1 2 3 4 7 11 14 15 15 15 16 17 18 17 16 14 11 9 8 7 7 8 7 7 8 9 11 13 12 10 10 11 11 10 11 13 15 16 16 17 19
0 0 0 0 0 0 0 0 1 1 2 3 5 9 14 16 17 17 16 17 17 15 14 12 10 9 7 6 5 5 5 6 6 7 10 11 11 10 9 9 10 10 10 11 13 14 14 16 19
0 0 0 0 0 0 0 0 0 1 2 3 5 7 10 14 16 16 15 15 15 13 12 11 10 9 7 5 4 3 3 4 4 5 8 9 9 8 8 9 11 11 10 11 12 13 13 16 18
0 0 0 0 0 0 0 0 0 1 2 4 5 6 6 8 10 12 12 12 12 12 10 9 8 7 4 3 3 3 3 3 3 5 7 8 8 8 9 11 12 12 11 11 12 13 14 15 16
0 0 0 0 0 0 0 0 0 0 2 4 6 6 5 4 6 8 9 9 10 10 8 7 6 4 3 2 2 2 2 2 2 4 6 7 8 9 9 11 11 11 10 11 11 11 12 14 14
0 0 0 0 0 0 0 0 0 0 1 3 5 6 6 4 4 6 6 7 8 8 6 4 4 4 3 2 1 1 1 1 1 2 4 5 6 7 8 8 8 8 8 9 10 10 11 13 13
0 0 0 0 0 0 0 0 0 0 1 3 5 7 6 5 4 4 5 6 7 6 4 3 2 3 3 2 1 0 0 0 0 1 2 3 4 5 5 5 4 5 6 8 9 10 11 13 14
0 0 0 0 0 0 0 0 0 1 3 4 5 6 7 5 4 3 4 5 6 5 4 2 1 1 2 3 2 1 0 0 0 1 2 1 2 3 3 3 3 3 4 6 7 8 10 11 13
0 0 0 0 0 0 0 0 0 1 3 4 4 6 7 6 4 3 3 4 4 4 2 1 0 0 2 3 2 1 0 0 0 1 1 1 1 2 3 2 3 3 4 5 6 7 7 8 9
0 0 0 0 0 0 0 0 0 0 2 3 4 5 6 5 4 4 3 3 3 2 1 0 0 0 1 2 2 1 1 1 0 0 0 0 0 1 2 3 3 3 3 4 5 6 6 6 6
0 0 0 0 0 0 0 0 0 0 1 2 4 5 5 4 4 4 3 3 2 1 0 0 0 0 1 1 1 1 1 1 1 0 0 0 0 1 2 3 3 3 3 4 4 4 4 4 4

GEFSSGP_con_probscp_222.txt.gz
Probability
0 0 0 0 0 0 0 0 0 0 0 0 0 2 6 7 7 6 4 5 10 14 16 18 18 13 8 6 5 4 4 4 4 4 4 5 7 7 5 5 6 6 6 4 3 3 1 2 5
0 0 0 0 0 0 0 0 0 0 0 0 1 3 6 7 7 5 5 8 12 17 20 22 21 16 10 8 8 7 6 6 5 5 4 5 7 8 7 6 6 6 5 4 3 3 2 3 4
0 0 0 0 0 0 0 0 1 1 0 1 3 4 4 5 6 5 7 11 16 21 27 29 26 19 13 11 11 9 9 9 9 8 7 7 7 9 9 7 6 5 4 4 3 3 3 3 4
0 0 0 0 0 0 0 1 2 2 2 2 5 7 7 6 7 7 8 12 17 22 28 31 27 21 17 16 14 12 10 10 10 10 10 10 9 9 10 9 7 6 5 5 5 6 5 5 4
0 0 0 0 0 0 1 2 4 4 3 3 6 10 12 10 10 8 7 10 14 19 25 27 25 21 20 21 18 14 11 9 8 9 10 11 11 11 10 10 8 8 7 8 9 10 9 7 5
0 0 0 0 0 1 2 3 4 4 3 2 4 10 13 13 12 10 8 9 11 16 22 24 21 19 20 20 19 16 13 10 8 8 9 10 10 10 10 9 10 10 10 11 11 12 10 9 8
0 0 0 0 0 1 3 3 3 4 3 1 3 9 13 14 14 10 8 10 11 17 21 19 14 14 16 18 18 18 17 16 14 11 9 9 9 9 8 9 11 12 13 13 12 11 9 9 10
0 0 0 0 1 2 3 3 4 5 4 2 4 9 14 16 14 10 9 11 15 19 20 16 11 11 14 16 17 19 21 21 19 15 11 10 10 9 8 9 10 12 14 15 15 14 11 10 11
0 0 0 0 1 2 2 2 3 4 4 4 7 12 15 16 14 11 11 14 18 20 17 15 13 14 14 14 16 19 21 22 20 16 13 12 12 12 11 11 10 11 13 16 17 16 14 13 12
0 0 0 0 0 1 1 1 1 2 4 6 10 15 18 17 15 13 14 17 19 19 17 15 16 18 16 14 17 20 20 20 18 15 14 14 15 15 15 16 16 14 13 15 16 16 16 14 12
0 0 0 0 0 0 0 0 0 1 3 5 10 15 18 17 15 14 16 18 19 19 18 18 19 21 21 21 22 22 21 20 17 16 17 18 18 17 18 20 20 17 15 15 16 17 16 14 11
0 0 0 0 0 0 0 0 2 3 4 6 9 12 13 14 15 14 15 17 18 19 20 22 24 26 27 28 26 24 24 23 21 21 22 23 22 19 18 19 20 17 16 16 16 18 18 15 13
0 0 0 1 1 1 0 2 4 5 5 6 8 9 9 10 13 15 15 15 18 21 23 25 28 30 31 30 27 24 23 23 24 28 28 27 25 21 18 18 18 16 14 14 15 15 16 16 15
0 0 0 1 1 1 0 2 5 5 4 5 6 7 8 10 12 16 18 18 21 23 25 25 27 29 31 30 27 24 22 23 26 31 32 29 26 23 20 20 19 16 13 13 12 12 13 16 16
0 0 0 1 1 0 0 1 3 4 3 3 4 7 11 13 14 18 22 24 24 26 26 25 24 25 28 28 26 24 22 24 28 32 32 30 27 24 22 21 20 16 14 13 12 11 12 14 15
0 0 0 1 2 1 0 1 2 2 2 3 5 10 16 17 17 19 23 25 25 27 28 26 25 25 25 25 25 25 24 27 31 34 33 30 26 24 23 22 20 17 14 13 12 11 12 13 13
0 0 0 1 2 2 1 1 2 2 2 4 8 13 18 20 21 21 22 24 26 27 28 27 28 28 25 24 26 27 28 30 34 35 33 29 24 23 24 22 19 17 13 11 11 12 12 13 13
0 0 0 0 1 2 2 2 3 3 2 5 10 15 20 24 26 26 25 25 25 26 26 27 31 33 30 28 28 28 29 29 31 32 30 26 23 22 21 20 17 14 11 9 8 10 13 13 13
0 0 0 0 0 1 3 4 4 3 3 6 12 16 22 27 29 29 29 27 24 24 25 28 32 36 34 32 30 28 26 23 23 26 27 25 22 20 18 17 15 13 11 9 7 9 11 12 12
0 0 0 0 0 1 3 3 4 5 6 8 11 16 21 25 26 28 28 26 22 23 25 28 31 32 32 30 28 26 22 19 18 20 22 22 21 20 19 17 16 14 12 10 9 9 10 10 10
0 0 0 0 0 1 2 4 7 9 10 8 9 12 17 19 22 24 24 22 21 22 22 24 28 28 28 25 22 19 17 15 15 15 14 15 18 19 19 18 16 14 12 11 10 10 9 8 8
0 0 1 0 0 1 2 4 9 12 10 7 7 9 13 15 18 20 19 18 19 19 20 21 25 27 26 23 16 13 11 11 11 11 9 9 12 15 16 15 14 13 12 11 10 9 8 8 7
0 0 0 0 0 0 1 3 7 10 9 7 7 9 11 12 15 17 16 15 15 15 16 19 22 25 24 20 15 11 10 9 8 7 6 5 7 9 9 11 12 13 12 11 10 9 8 8 7
0 0 0 0 0 0 1 3 6 7 8 8 8 9 10 11 14 16 16 15 13 13 13 15 19 21 19 16 12 10 10 9 6 4 3 3 4 5 6 8 11 13 11 9 8 9 9 9 9
0 0 0 0 0 0 1 3 5 6 6 7 9 9 9 11 15 16 16 15 14 13 12 14 17 18 16 14 12 11 11 9 6 3 1 2 3 5 6 8 10 12 10 8 7 9 10 11 10
0 0 0 0 0 0 1 3 5 5 4 5 7 8 9 10 13 14 14 14 13 12 13 14 15 15 13 12 12 12 10 8 5 3 2 2 4 6 7 8 9 10 9 8 8 9 10 10 10
0 0 0 0 0 0 1 3 4 3 2 3 6 9 9 7 8 10 12 13 13 12 12 13 12 10 9 10 10 8 6 5 3 3 3 3 5 6 7 6 7 9 9 9 10 9 8 7 7
0 0 0 0 0 0 1 2 2 2 2 3 6 10 9 5 5 8 11 13 13 12 11 11 11 8 6 6 5 3 2 2 1 1 3 3 5 6 5 4 5 6 7 7 8 7 6 6 5
0 0 0 1 1 0 0 0 1 2 3 3 6 11 10 6 7 9 10 12 13 13 12 11 10 7 5 3 1 1 1 0 0 1 2 3 3 4 4 4 4 4 3 3 4 4 4 5 5
0 0 1 3 2 1 0 1 2 3 3 4 7 11 11 7 8 10 11 12 13 13 12 10 8 6 4 1 0 0 1 0 0 0 1 2 2 2 3 3 3 2 1 1 2 2 2 4 4

GEFSSGP_con_probscp_228.txt.gz
Probability
0 0 0 0 0 0 0 0 0 0 1 1 1 3 4 5 5 6 6 7 9 11 12 15 19 19 15 11 10 11 14 15 13 12 14 15 17 18 15 11 8 7 6 6 7 6 4 4 6
0 0 0 0 0 0 0 0 0 0 1 2 3 5 6 5 5 6 7 9 12 14 15 16 20 21 16 9 7 9 12 12 10 12 15 18 20 21 19 13 9 6 5 4 4 4 3 3 3
0 0 0 0 0 0 0 0 1 1 1 3 5 7 7 5 5 7 10 12 15 18 18 19 23 23 17 9 5 6 8 8 8 11 15 18 21 23 22 16 10 6 4 2 1 2 3 2 1
0 0 0 0 0 0 0 0 1 2 2 4 7 8 7 6 7 11 14 16 17 18 18 21 24 24 19 13 8 7 7 7 9 11 12 14 17 19 20 16 9 6 4 2 2 3 4 3 2
0 0 0 0 0 0 0 0 1 2 4 6 8 9 9 9 11 13 15 17 17 15 15 19 23 23 21 17 13 11 11 10 12 13 12 12 13 15 15 12 9 6 5 3 3 5 6 6 6
0 0 0 0 0 0 0 1 1 4 7 8 9 11 11 12 12 12 13 14 15 13 11 15 19 20 20 18 16 16 15 15 16 17 17 15 14 14 13 10 8 7 5 4 5 5 6 7 7
0 0 0 0 0 0 0 1 3 6 10 11 11 12 11 11 11 12 13 13 13 11 9 10 12 13 14 16 17 19 19 19 21 22 20 17 16 15 12 10 9 7 6 5 5 5 5 6 7
0 0 0 0 0 0 0 1 3 7 11 12 13 13 11 10 13 16 16 15 13 10 9 9 8 8 9 12 16 19 19 20 23 24 23 20 17 13 11 10 10 8 7 6 5 5 7 8 9
0 0 0 0 0 1 1 1 2 6 10 12 13 14 12 12 16 20 19 17 14 11 10 10 9 8 8 10 13 15 14 15 19 22 23 20 16 12 10 10 9 9 8 7 6 6 7 9 10
0 0 0 0 0 1 2 2 2 5 9 12 14 15 14 12 15 18 18 16 13 11 10 11 11 10 9 10 11 12 12 12 13 16 18 16 14 13 11 10 9 9 9 8 7 6 7 8 8
0 0 0 0 0 1 3 3 3 4 6 10 15 17 14 11 12 14 14 13 12 10 9 10 11 10 9 10 10 11 12 11 11 12 13 12 12 12 11 10 9 8 9 8 7 6 6 6 6
0 0 0 1 1 1 3 3 3 4 5 9 16 19 17 14 13 13 12 12 11 9 9 9 8 7 7 9 10 10 12 12 11 11 11 10 9 9 9 9 8 8 7 7 6 6 5 4 4
0 0 1 1 2 2 3 3 3 4 6 10 17 20 19 16 14 12 12 11 11 10 8 7 6 5 5 7 8 9 11 12 11 10 10 8 7 6 7 7 7 7 6 6 6 6 4 3 3
0 0 1 1 1 1 2 3 3 5 7 11 15 18 17 14 12 11 11 10 10 9 8 7 5 4 5 7 8 9 10 12 11 10 9 8 7 6 7 7 6 6 6 6 7 7 5 4 3
0 0 1 1 0 1 2 2 3 5 8 10 12 13 11 10 9 9 10 9 9 9 9 9 7 6 6 7 8 8 8 9 9 9 10 10 8 7 7 6 5 5 6 6 7 7 6 4 3
0 0 0 0 0 1 1 1 2 4 7 9 11 10 9 9 9 10 10 10 9 10 11 12 10 8 8 7 6 5 5 5 5 6 8 10 9 9 7 6 4 4 5 6 6 6 5 3 2
0 0 0 0 0 0 0 0 1 4 7 9 10 10 10 10 10 10 12 12 10 11 13 15 13 10 8 7 5 4 2 2 2 3 5 6 8 10 8 6 5 4 4 4 3 3 2 1 1
0 0 0 0 0 0 0 0 1 4 8 10 11 12 12 12 11 11 12 12 11 12 15 17 14 10 7 7 6 4 2 1 1 1 2 3 5 8 8 7 6 5 4 3 1 1 0 0 0
0 0 0 0 0 0 0 0 1 5 8 10 11 13 14 13 11 11 12 12 12 13 16 17 15 10 7 7 7 5 2 1 0 0 0 1 2 5 7 7 5 4 3 3 1 1 0 0 0
0 0 0 0 0 0 0 0 1 3 6 8 9 11 13 13 12 12 14 14 13 15 16 16 14 11 8 7 5 3 1 0 0 0 0 0 1 3 6 6 5 3 3 3 3 2 1 1 1
0 0 0 1 1 0 0 0 1 2 4 5 6 8 10 11 11 12 13 14 14 15 15 13 12 10 8 6 4 2 1 0 0 0 0 0 1 3 4 5 5 4 3 3 3 4 4 4 3
0 0 0 1 1 0 0 0 2 3 5 5 5 6 8 8 8 9 10 12 14 15 13 10 9 9 7 5 3 3 2 0 0 0 0 1 1 2 3 4 4 3 3 2 2 4 5 5 4
0 0 0 0 0 0 0 0 2 5 7 7 5 4 4 5 5 6 8 9 12 13 12 9 8 7 6 4 3 3 1 0 0 0 0 0 0 1 2 3 3 3 2 1 1 2 3 4 3
1 1 1 0 0 0 0 0 3 7 8 8 5 2 1 2 2 3 5 7 9 11 11 9 7 6 5 4 3 2 1 0 0 0 0 0 0 0 1 2 3 3 3 1 0 0 1 1 1
1 1 1 0 0 0 0 0 2 6 8 7 4 1 0 0 1 1 3 6 8 10 10 8 6 4 4 3 3 1 0 0 0 0 0 0 0 0 1 2 3 3 3 2 1 1 1 1 1
0 0 0 0 0 0 0 0 1 3 5 4 2 0 0 0 0 0 2 6 9 10 9 7 5 3 3 3 2 1 0 0 0 0 0 0 0 0 0 1 3 3 3 2 1 1 2 2 3
0 0 0 0 0 0 0 0 0 1 2 2 1 0 0 0 0 0 1 5 8 9 9 7 4 3 3 2 1 0 0 0 0 0 0 0 0 0 0 1 2 3 3 1 0 0 1 2 2
0 0 0 0 0 0 0 0 0 0 0 0 0 0 0 0 0 1 2 5 7 9 8 6 3 2 2 1 0 0 0 0 0 0 0 0 0 0 0 0 1 2 2 1 0 0 1 1 1
0 0 0 0 0 0 0 0 0 0 0 0 0 0 0 0 1 3 4 5 8 9 8 5 2 2 1 0 0 0 0 0 0 0 0 0 0 0 0 0 0 1 1 0 0 0 0 0 0
0 0 0 0 0 0 0 0 0 0 0 0 0 0 0 1 2 4 5 7 9 9 8 5 2 2 1 0 0 0 0 0 0 0 0 0 0 0 0 0 0 0 0 0 0 0 0 0 0

GEFSSGP_con_probscp_234.txt.gz
Probability
0 0 0 0 0 0 0 0 0 0 1 1 2 2 2 1 1 1 1 3 7 11 14 17 18 17 15 13 14 15 15 13 13 15 16 15 15 15 14 12 10 7 6 6 7 8 7 4 3
0 0 0 0 0 0 0 0 0 1 2 2 1 1 2 2 1 1 1 3 8 13 15 17 18 18 16 13 11 12 12 10 11 13 13 12 13 14 15 14 12 10 8 7 7 6 5 3 2
0 0 0 0 0 0 0 0 0 1 2 1 1 1 1 2 2 3 3 6 10 13 14 16 18 20 19 15 10 8 8 9 11 12 12 11 11 13 14 12 11 10 10 9 7 6 5 4 4
0 0 0 0 0 0 0 0 0 2 2 2 3 3 3 2 3 5 6 8 10 11 11 14 18 20 20 17 11 7 8 9 12 14 15 15 14 14 12 9 7 7 9 10 8 6 6 6 6
0 0 0 0 0 0 0 0 1 2 3 4 6 6 4 3 3 5 6 6 7 8 9 13 17 19 19 17 11 8 9 11 13 16 19 19 18 15 11 8 5 5 8 9 9 7 6 6 7
0 0 0 0 0 0 0 1 3 5 5 6 7 7 4 2 3 4 4 4 5 7 10 14 18 19 19 17 12 9 10 12 16 19 21 20 17 13 11 9 7 6 8 9 9 8 6 6 6
0 0 0 0 0 1 1 3 6 7 6 6 7 6 3 2 2 4 5 5 5 7 11 16 18 19 19 17 13 12 13 16 21 23 22 19 15 13 12 11 9 8 9 9 10 9 8 8 8
0 0 0 0 0 0 1 3 6 6 5 5 5 5 4 4 5 7 7 7 7 8 11 15 16 17 16 14 12 12 13 17 21 22 21 17 14 12 12 11 10 10 10 10 10 10 10 10 11
0 0 0 0 0 0 0 1 2 3 3 3 4 5 7 10 11 10 8 7 7 9 11 14 15 14 12 10 9 9 10 12 14 14 14 12 12 11 10 9 9 10 10 8 9 10 10 10 11
0 0 0 0 0 0 0 0 1 2 3 3 5 9 14 16 14 10 7 5 6 7 10 12 13 12 10 8 6 6 7 7 8 8 9 10 12 12 11 10 9 9 8 6 7 9 10 9 9
0 0 0 0 0 0 0 0 1 2 2 2 4 11 18 18 15 11 8 7 6 7 8 10 10 10 8 7 6 6 6 6 7 8 8 9 11 13 12 11 10 9 8 7 8 10 10 8 7
0 0 0 0 1 1 0 0 0 1 2 2 5 11 16 16 13 11 10 10 10 9 9 9 10 9 8 8 7 7 6 6 7 8 8 8 9 10 11 10 10 9 9 9 9 9 8 7 5
0 0 0 1 1 1 1 0 0 1 3 6 8 11 13 13 11 9 9 11 11 11 10 10 10 10 9 9 8 8 7 7 7 7 7 7 7 8 9 9 8 7 8 8 8 7 7 6 4
0 0 0 1 1 1 1 0 0 2 6 9 10 10 11 10 9 9 9 9 9 10 10 11 11 10 10 11 10 9 8 7 7 6 6 6 6 7 8 7 6 6 6 6 7 7 6 5 4
0 0 0 0 0 0 0 0 0 3 7 9 10 9 8 9 9 9 9 8 7 8 9 10 10 9 9 10 10 10 9 8 7 7 6 5 4 5 6 6 6 5 5 5 5 6 5 4 4
0 0 0 0 0 0 0 0 1 3 6 8 8 6 6 7 8 9 9 8 8 7 7 8 8 8 6 6 7 8 8 8 7 6 5 4 3 3 4 5 6 5 5 5 5 4 4 4 4
0 0 0 0 0 0 0 0 1 3 5 6 5 5 5 6 7 7 8 9 9 8 7 7 8 8 6 4 4 5 6 5 5 4 4 4 4 3 3 4 5 5 4 4 4 4 3 3 4
0 0 0 0 0 0 0 0 1 2 4 5 5 4 4 5 5 6 8 9 10 9 8 7 7 9 8 5 3 3 3 3 2 3 3 4 4 4 3 4 4 4 3 3 4 3 3 3 3
0 0 0 0 0 0 0 0 0 1 3 4 5 5 4 4 4 5 7 9 10 9 8 7 8 9 8 5 3 2 1 1 1 1 2 3 3 3 4 5 4 3 3 3 3 3 3 3 3
0 0 0 0 0 0 0 0 0 1 2 4 5 4 4 5 5 4 5 8 9 9 8 8 7 6 5 4 3 2 1 0 0 0 1 1 2 3 4 5 5 4 3 3 3 3 3 3 3
0 0 0 0 0 0 0 0 0 0 1 3 4 4 4 5 5 4 4 5 7 8 8 8 7 5 4 3 2 1 1 0 0 0 0 0 1 2 3 4 5 4 3 3 3 3 3 3 3
0 0 0 0 0 0 0 0 0 0 1 2 3 3 4 4 4 4 4 3 4 4 6 7 6 6 6 5 3 2 1 0 0 0 0 0 0 1 2 3 5 4 3 3 3 3 3 3 3
0 0 0 0 0 0 0 0 0 0 0 1 1 2 3 2 3 4 5 4 3 2 3 4 5 6 6 6 4 2 1 0 0 0 0 0 0 0 1 2 3 3 2 1 2 2 2 2 2
0 0 0 0 0 0 0 0 0 0 0 1 1 1 1 1 1 3 5 6 5 3 2 3 4 4 5 6 5 2 0 0 0 0 0 0 0 0 0 1 2 2 1 0 1 1 1 1 1
0 0 0 0 0 0 0 0 0 0 0 0 0 0 0 0 1 2 4 5 6 5 4 4 3 3 4 5 4 1 0 0 0 0 0 0 0 0 0 1 2 2 1 1 2 1 0 0 0
0 0 0 0 0 0 0 0 0 0 0 0 0 0 0 0 0 1 2 3 4 4 4 4 4 3 3 4 3 1 0 0 0 0 0 0 0 0 0 1 2 1 1 2 3 2 1 0 0
0 0 0 0 0 0 0 0 0 0 0 0 0 0 0 0 0 0 0 1 1 2 4 5 5 4 3 3 2 1 0 0 0 0 0 0 0 0 0 1 1 0 1 2 3 2 1 0 0
0 0 0 0 0 0 0 0 0 0 0 0 0 0 0 0 0 0 0 0 0 2 4 5 5 4 3 3 2 1 0 0 0 0 0 0 0 0 0 0 0 0 1 2 3 2 1 0 0
0 0 0 0 0 0 0 0 0 0 0 0 0 0 0 0 0 0 0 0 0 1 3 5 5 4 3 3 1 0 0 0 0 0 0 0 0 0 0 0 0 0 1 2 3 2 1 0 0
0 0 0 0 0 0 0 0 0 0 0 0 0 0 0 0 0 0 0 0 0 1 3 5 5 4 3 2 1 0 0 0 0 0 0 0 0 0 0 0 0 0 1 2 3 2 1 0 0

GEFSSGP_con_probscp_240.txt.gz
Probability
0 0 0 0 0 0 0 0 0 0 0 0 0 1 0 0 1 2 3 5 6 6 8 11 12 13 13 12 10 10 9 8 7 7 6 5 6 8 8 7 7 6 4 2 1 2 3 3 3
0 0 0 0 0 0 0 0 0 0 0 0 1 2 1 1 1 2 4 6 6 6 9 11 13 14 13 11 10 10 10 8 8 8 8 8 9 9 9 8 8 7 5 2 1 1 2 2 1
0 0 0 0 0 0 0 0 1 1 2 2 3 4 4 2 1 2 5 5 5 6 10 13 15 16 15 11 10 10 10 9 7 8 11 13 12 11 11 10 10 9 7 3 1 0 1 1 0
0 0 0 0 0 0 0 0 1 2 3 4 5 6 6 4 2 3 4 4 3 5 10 15 17 17 14 10 8 8 8 8 8 9 12 14 14 12 12 13 12 11 9 5 2 1 0 0 0
0 0 0 0 0 0 1 1 1 2 3 5 5 6 6 4 3 4 5 3 2 4 9 14 16 15 12 8 6 5 6 8 9 10 12 14 14 13 13 13 13 12 10 8 5 4 3 1 0
0 0 0 0 0 0 1 2 2 3 4 4 5 6 6 5 5 6 7 5 3 4 7 11 14 13 11 9 6 6 7 10 12 13 13 13 14 13 12 11 11 11 11 9 7 5 5 3 2
0 0 0 0 0 0 1 2 3 4 5 3 3 4 5 5 7 9 10 8 5 4 6 8 9 9 10 10 9 9 11 12 14 15 14 12 12 10 8 9 11 12 12 10 8 7 8 7 5
0 0 0 0 0 0 1 3 4 5 4 3 2 3 5 8 10 11 13 12 9 7 6 5 6 6 8 8 9 10 12 13 13 14 13 10 8 6 4 5 9 10 10 9 9 9 11 10 8
0 0 0 0 0 0 1 3 4 4 3 3 3 4 7 10 12 14 15 14 11 9 7 6 6 6 6 6 6 7 9 10 11 10 10 8 6 4 2 3 5 5 5 6 6 7 9 9 8
0 0 0 0 0 1 2 2 2 2 2 3 4 6 9 13 15 16 16 14 11 9 9 8 7 6 7 7 6 4 5 8 8 7 8 7 5 4 4 4 4 4 3 2 2 3 4 5 4
0 0 0 0 1 2 2 2 1 1 1 1 2 6 11 16 17 17 15 13 11 10 9 10 9 8 8 8 8 6 6 7 7 7 8 7 6 6 7 7 6 5 5 5 4 4 3 3 4
0 0 0 1 2 3 3 2 1 0 0 1 3 7 12 16 17 16 14 13 11 10 11 13 14 13 10 10 10 8 8 8 7 8 9 9 8 8 10 12 10 9 10 9 9 8 7 6 6
0 1 1 2 3 3 3 1 0 1 2 3 5 9 12 14 15 14 14 15 13 12 13 16 17 16 14 14 12 9 8 7 7 7 8 8 9 10 13 15 14 12 13 14 13 12 11 9 9
1 2 3 3 3 3 2 1 0 2 3 4 6 8 10 13 14 14 16 17 18 17 16 17 18 17 15 15 13 10 7 7 7 6 7 7 8 10 13 16 15 14 14 15 15 13 12 10 8
2 3 3 3 2 1 1 0 0 1 2 4 5 6 8 12 14 15 17 19 20 17 16 16 17 16 14 13 12 10 8 7 7 6 6 6 7 8 11 14 14 14 14 15 15 13 11 8 7
2 2 2 1 1 0 0 0 0 0 1 2 3 4 7 11 12 13 16 18 17 15 14 15 15 14 12 12 11 10 8 7 7 6 6 6 6 7 9 12 13 13 14 14 13 11 9 8 7
1 1 2 1 0 0 0 0 0 0 1 2 3 4 7 10 12 13 15 17 18 17 15 14 14 13 13 13 12 11 10 9 7 7 7 7 7 7 9 12 13 12 14 13 10 9 9 8 8
0 1 2 1 0 0 0 0 0 0 0 2 4 6 8 10 12 14 15 17 19 19 18 16 14 15 15 15 15 14 13 11 9 8 8 9 9 8 8 10 11 12 12 11 8 8 8 7 6
0 0 1 1 0 0 0 1 1 1 1 3 5 7 8 10 12 15 17 18 19 21 21 17 14 14 15 16 16 16 16 14 11 9 10 10 10 9 8 8 11 12 12 12 10 9 7 6 5
0 0 0 0 0 0 0 1 2 1 1 2 4 6 8 10 13 16 19 20 21 21 20 16 12 11 13 15 16 18 19 16 12 11 11 9 8 7 6 8 10 11 12 13 14 12 8 6 6
0 0 0 0 0 0 0 1 1 1 1 2 3 5 8 12 13 14 17 20 21 20 19 15 12 11 11 13 15 18 19 16 12 11 10 8 6 5 5 6 8 9 10 12 14 13 10 8 7
0 0 0 0 0 0 0 0 0 1 2 3 4 7 10 12 12 11 13 17 18 18 17 15 14 14 14 14 15 17 17 13 11 10 9 7 6 5 5 5 5 7 8 9 10 11 11 9 7
0 0 0 0 0 0 0 0 0 1 2 4 6 9 12 12 10 9 11 14 15 15 15 14 15 16 16 16 17 18 15 12 11 10 8 7 6 4 4 4 4 6 8 8 8 8 9 8 7
0 0 0 0 0 0 0 0 0 1 2 4 7 9 11 11 9 9 11 13 13 12 12 12 13 14 14 16 18 18 15 13 12 10 7 5 3 2 1 2 3 4 7 8 7 7 7 7 6
0 0 0 0 0 0 0 0 1 2 3 5 7 8 9 9 7 7 10 12 11 10 11 11 12 13 14 15 16 15 14 13 12 10 7 4 1 0 0 1 1 2 4 6 7 8 7 6 6
0 0 0 0 0 0 0 0 1 3 4 4 5 7 7 6 6 6 7 8 9 10 10 11 11 13 14 14 13 13 12 13 13 10 6 4 2 1 0 0 0 0 2 4 6 8 7 6 6
0 0 0 0 0 0 0 0 2 3 3 3 4 5 6 5 5 4 4 4 6 9 10 10 11 12 12 12 11 10 11 12 12 8 4 3 2 1 0 0 0 0 1 3 4 6 6 6 6
0 0 0 0 0 0 0 0 1 3 3 3 3 4 6 6 5 4 3 2 5 8 9 9 9 10 9 9 9 8 9 10 9 6 2 1 1 0 0 0 0 0 1 2 3 4 6 6 6
0 0 0 0 0 0 0 0 1 2 3 2 2 3 6 7 6 5 3 2 4 7 8 8 8 8 7 7 7 7 7 8 6 4 1 0 0 0 0 0 0 0 1 2 3 4 5 6 6
0 0 0 1 1 1 0 1 2 2 2 1 1 3 6 8 7 6 4 2 3 6 7 8 8 7 6 5 6 6 7 6 5 3 1 0 0 0 0 0 0 0 1 2 3 4 5 5 4